Location: Breitenfeld
(46.8500°N, 15.6333°E)
Time: 06:08:07
(UTC+00:00)

MONITOR-E - Pass Details

Date: 09 April 2020
Orbit: 307 x 312 km, 97.0° (Epoch: 29 May)

Event Time Altitude Azimuth Distance (km) Brightness Sun altitude
Exits shadow 18:37:30 - 173° (S) 1,693 7.0 -10.5°
Reaches altitude 10° 18:38:35 10° 176° (S) 1,222 6.3 -10.6°
Maximum altitude 18:41:09 64° 258° (WSW) 361 4.1 -11.0°
Drops below altitude 10° 18:43:47 10° 342° (NNW) 1,251 7.3 -11.4°
Sets 18:45:42 0° 346° (NNW) 2,097 8.4 -11.7°
